Location: Newark
(45.5000°N, 11.4167°E)
Time: 19:27:26
(UTC+00:00)

Transit 2A Rocket - Pass Details

Date: 02 September 2019
Orbit: 594 x 910 km, 66.7° (Epoch: 17 October)

Event Time Altitude Azimuth Distance (km) Brightness Sun altitude
Rises 22:13:59 0° 336° (NNW) 3,048 9.1 -35.1°
Reaches altitude 10° 22:17:59 10° 8° (N) 2,056 7.9 -35.3°
Maximum altitude 22:19:39 12° 30° (NNE) 1,913 7.5 -35.4°
Enters shadow 22:19:46 12° 31° (NNE) 1,912 7.5 -35.4°
